This is the latest recevied weather packets stored in our database for station/object R1CBW-13. If no packets are shown the sender has not sent any weather packets the latest 10 day(s).
| Time | Temp. | Humidity | Pressure | Rain* | Wind** | Luminosity | Snow |
|---|---|---|---|---|---|---|---|
| 1776906903 | 1.11° C | 61% | 1002 hPa | 0 mm | - | - | - |
| 1776906843 | 0.56° C | 61% | 1002 hPa | 0 mm | - | - | - |
| 1776906783 | 1.11° C | 61% | 1002 hPa | 0 mm | - | - | - |
| 1776906722 | 0.56° C | 61% | 1002.1 hPa | 0 mm | - | - | - |
| 1776906663 | 0.56° C | 62% | 1002.1 hPa | 0 mm | - | - | - |
| 1776906602 | 1.11° C | 60% | 1002.3 hPa | 0 mm | - | - | - |
| 1776906542 | 0.56° C | 61% | 1002.1 hPa | 0 mm | - | - | - |
| 1776906482 | 1.11° C | 59% | 1002.1 hPa | 0 mm | - | - | - |
| 1776906422 | 0.56° C | 60% | 1002 hPa | 0 mm | - | - | - |
| 1776906363 | 1.11° C | 59% | 1002.1 hPa | 0 mm | - | - | - |
| 1776906302 | 1.11° C | 60% | 1002 hPa | 0 mm | - | - | - |
| 1776906242 | 0.56° C | 60% | 1002.2 hPa | 0 mm | - | - | - |
| 1776906182 | 0.56° C | 62% | 1002.1 hPa | 0 mm | - | - | - |
| 1776906122 | 0.56° C | 61% | 1002 hPa | 0 mm | - | - | - |
| 1776906062 | 0.56° C | 61% | 1002 hPa | 0 mm | - | - | - |
| 1776906002 | 0.56° C | 61% | 1002 hPa | 0 mm | - | - | - |
| 1776905942 | 1.67° C | 59% | 1002.1 hPa | 0 mm | - | - | - |
| 1776905882 | 0.56° C | 61% | 1001.9 hPa | 0 mm | - | - | - |
| 1776905822 | 0.56° C | 59% | 1001.9 hPa | 0 mm | - | - | - |
| 1776905762 | 1.67° C | 59% | 1001.9 hPa | 0 mm | - | - | - |
| 1776905702 | 1.11° C | 61% | 1001.9 hPa | 0 mm | - | - | - |
| 1776905642 | 1.11° C | 60% | 1001.9 hPa | 0 mm | - | - | - |
| 1776905582 | 1.11° C | 61% | 1001.9 hPa | 0 mm | - | - | - |
| 1776905522 | 0.56° C | 62% | 1002 hPa | 0 mm | - | - | - |
| 1776905462 | 1.11° C | 61% | 1001.9 hPa | 0 mm | - | - | - |
* Rain latest hour (hover to see other rain measurements)
** Current wind speed in m/s (hover to see current wind gust speed)